Weather History for 68828 - December, 2012

Change the Weather History Date:

Thursday, December 6, 2012

  Actual Average Record
Temperature  
Mean Temperature 62 °F -  
Max Temperature 73 °F 72 °F - ()
Min Temperature 50 °F 57 °F - ()
Degree Days  
Heating Degree Days 4    
Growing Degree Days 12 (Base 50)    
Moisture  
Dew Point 55 °F    
Average Humidity 76    
Maximum Humidity 94    
Minimum Humidity 56    
Precipitation  
Precipitation 0.00 in - - ()
Sea Level Pressure  
Sea Level Pressure 29.94 in    
Wind  
Wind Speed 5 mph ()    
Max Wind Speed 9 mph    
Max Gust Speed -    
Visibility 8.2 miles    
Events      
T = Trace of Precipitation, MM = Missing Value Source: Averaged Metar Reports

Daily Weather History Graph

Daily Weather History Graph

Search for Another Location

Airport or City:

Trip Planner

Search our weather history database for the weather conditions in past years. The results will help you decide how hot, cold, wet, or windy it might be!

Date:

Astronomy

Dec. 06, 2012 Rise Set
Actual Time 5:12 AM SAST 7:31 PM SAST
Civil Twilight 4:43 AM SAST 8:00 PM SAST
Nautical Twilight 4:07 AM SAST 8:35 PM SAST
Astronomical Twilight 3:29 AM SAST 9:14 PM SAST
Moon 12:04 AM SAST (12/6) 12:06 PM SAST (12/6)
Length of Visible Light 15h 17m
Length of Day
14h 19m
Waning Gibbous, 52% of the Moon is Illuminated
Dec 6
Waning Gibbous
Dec 6
Last Quarter
Dec 13
New
Dec 20
First Quarter
Dec 28
Full

Hourly Weather History & Observations

Time (SAST) Temp. Dew Point Humidity Pressure Visibility Wind Dir Wind Speed Gust Speed Precip Events Conditions
12:00 AM 59.0 °F 51.8 °F 77% 30.04 in 6.2 mi East 8.1 mph - N/A   Mostly Cloudy
1:00 AM 57.2 °F 51.8 °F 82% 30.01 in - East 6.9 mph - N/A   Clear
2:00 AM 55 °F 51 °F 80% 29.99 in 12 mi East 5.8 mph - -  
2:00 AM 55.4 °F 50.0 °F 82% 29.98 in - East 5.8 mph - N/A   Clear
3:00 AM 53.6 °F 50.0 °F 88% 29.98 in - Calm Calm - N/A   Clear
4:00 AM 51.8 °F 50.0 °F 94% 29.95 in - NNW 3.5 mph - N/A   Clear
5:00 AM 52 °F 50 °F 89% 29.97 in 0 mi NW 3.5 mph - -  
5:00 AM 51.8 °F 48.2 °F 88% 29.95 in - NW 3.5 mph - N/A   Clear
6:00 AM 51.8 °F 50.0 °F 94% 29.98 in - NW 5.8 mph - N/A   Clear
7:00 AM 57.2 °F 51.8 °F 82% 29.95 in - West 3.5 mph - N/A   Clear
8:00 AM 64 °F 53 °F 59% 29.99 in 12 mi 2.3 mph - -   Scattered Clouds
8:00 AM 64.4 °F 53.6 °F 68% 29.98 in 6.2 mi Variable 2.3 mph - N/A   Partly Cloudy
9:00 AM 66.2 °F 53.6 °F 64% 29.95 in 6.2 mi Variable 3.5 mph - N/A   Partly Cloudy
10:00 AM 68.0 °F 53.6 °F 60% 29.92 in 6.2 mi Variable 3.5 mph - N/A   Partly Cloudy
11:00 AM 69 °F 58 °F 58% 29.94 in 12 mi South 9.2 mph - -   Scattered Clouds
11:00 AM 69.8 °F 57.2 °F 64% 29.92 in 6.2 mi South 9.2 mph - N/A   Partly Cloudy
12:00 PM 69.8 °F 57.2 °F 64% 29.92 in 6.2 mi SSE 9.2 mph - N/A   Partly Cloudy
1:00 PM 69.8 °F 59.0 °F 68% 29.89 in 6.2 mi SE 6.9 mph - N/A   Scattered Clouds
2:00 PM 71 °F 58 °F 56% 29.88 in 19 mi SE 5.8 mph - -   Partly Cloudy
2:00 PM 71.6 °F 59.0 °F 64% 29.89 in 6.2 mi SE 5.8 mph - N/A   Scattered Clouds
3:00 PM 71.6 °F 60.8 °F 69% 29.86 in 6.2 mi South 6.9 mph - N/A   Partly Cloudy
4:00 PM 69.8 °F 59.0 °F 68% 29.86 in 6.2 mi South 8.1 mph - N/A   Partly Cloudy
5:00 PM 69 °F 59 °F 62% 29.86 in 19 mi SSW 6.9 mph - -   Scattered Clouds
5:00 PM 69.8 °F 59.0 °F 68% 29.86 in 6.2 mi SSW 6.9 mph - N/A   Partly Cloudy
6:00 PM 66.2 °F 59.0 °F 78% 29.89 in 6.2 mi SSW 6.9 mph - N/A   Scattered Clouds
7:00 PM 66.2 °F 59.0 °F 78% 29.92 in 6.2 mi Variable 2.3 mph - N/A   Scattered Clouds
8:00 PM 63 °F 59 °F 83% 29.93 in 12 mi South 3.5 mph - -   Scattered Clouds
8:00 PM 62.6 °F 59.0 °F 88% 29.92 in 6.2 mi SSE 3.5 mph - N/A   Partly Cloudy
9:00 PM 62.6 °F 59.0 °F 88% 29.95 in - Variable 1.2 mph - N/A   Clear
10:00 PM 60.8 °F 59.0 °F 94% 29.95 in - Variable 1.2 mph - N/A   Clear
11:00 PM 60.8 °F 57.2 °F 88% 29.95 in - Variable 2.3 mph - N/A   Clear